{"data":{"norad_id":55110,"epoch":"2026-05-25T04:33:52.428096Z","epoch_age_seconds":58494,"freshness":"FRESH","line1":"1 55110U 23001DF  26145.19019014  .00011296  00000+0  42312-3 0  9994","line2":"2 55110  97.5550 237.9137 0006419 288.8116  71.2426 15.27432410187693","mean_motion":15.2743241,"eccentricity":0.0006419,"inclination_deg":97.555,"raan_deg":237.9137,"arg_perigee_deg":288.8116,"mean_anomaly_deg":71.2426,"bstar":0.00042312,"rev_number":18769,"period_min":94.275857352012,"perigee_km":479.08659012251,"apogee_km":487.89554823773,"semimajor_km":6861.6280691801,"source":"CELESTRAK","updated_at":"2026-05-25T13:37:58.816511Z"}}